This is the latest recevied weather packets stored in our database for station/object KJ4EWA. If no packets are shown the sender has not sent any weather packets the latest 10 day(s).
| Time | Temp. | Humidity | Pressure | Rain* | Wind** | Luminosity | Snow |
|---|---|---|---|---|---|---|---|
| 1777237886 | 26.67° C | 88% | 1014.7 hPa | 0 mm | - | 276 W/m² | - |
| 1777237582 | 25.56° C | 91% | 1014.8 hPa | 0 mm | - | 177 W/m² | - |
| 1777237280 | 26.11° C | 94% | 1014.7 hPa | 0 mm | - | 152 W/m² | - |
| 1777236976 | 26.11° C | 94% | 1014.9 hPa | 0 mm | - | 159 W/m² | - |
| 1777236674 | 26.11° C | 91% | 1015 hPa | 0 mm | - | 153 W/m² | - |
| 1777236368 | 25.56° C | 89% | 1014.8 hPa | 0 mm | - | 177 W/m² | - |
| 1777236060 | 26.11° C | 90% | 1015 hPa | 0 mm | - | 218 W/m² | - |
| 1777235756 | 25.56° C | 90% | 1014.8 hPa | 0 mm | - | 188 W/m² | - |
| 1777235453 | 25.56° C | 90% | 1014.7 hPa | 0 mm | - | 166 W/m² | - |
| 1777235149 | 25.56° C | 88% | 1014.8 hPa | 0 mm | - | 164 W/m² | - |
| 1777234845 | 25.56° C | 88% | 1014.9 hPa | 0 mm | - | 158 W/m² | - |
| 1777234540 | 25.56° C | 90% | 1014.8 hPa | 0 mm | - | 172 W/m² | - |
| 1777234235 | 25.56° C | 90% | 1015 hPa | 0 mm | - | 202 W/m² | - |
| 1777233932 | 25° C | 93% | 1015 hPa | 0 mm | - | 220 W/m² | - |
| 1777233628 | 25° C | 92% | 1014.8 hPa | 0 mm | - | 155 W/m² | - |
| 1777233327 | 25.56° C | 95% | 1014.8 hPa | 0 mm | - | 159 W/m² | - |
| 1777233023 | 26.11° C | 95% | 1014.9 hPa | 0 mm | - | 188 W/m² | - |
| 1777232720 | 25.56° C | 91% | 1014.8 hPa | 0 mm | - | 269 W/m² | - |
| 1777232418 | 25° C | 90% | 1014.6 hPa | 0 mm | - | 588 W/m² | - |
| 1777232114 | 25° C | 92% | 1014.6 hPa | 0 mm | - | 339 W/m² | - |
| 1777231812 | 25° C | 96% | 1014.5 hPa | 0 mm | - | 446 W/m² | - |
| 1777231509 | 25° C | 98% | 1014.7 hPa | 0 mm | - | 281 W/m² | - |
| 1777231205 | 23.89° C | 99% | 1014.5 hPa | 0 mm | - | 358 W/m² | - |
| 1777230901 | 23.33° C | 99% | 1014.7 hPa | 0 mm | - | 239 W/m² | - |
| 1777230596 | 23.33° C | 99% | 1014.4 hPa | 0 mm | - | 215 W/m² | - |
* Rain latest hour (hover to see other rain measurements)
** Current wind speed in m/s (hover to see current wind gust speed)